Showing default

ZY 3 2, 41556

Orbit data source: Space-Track

ZY 3 2, 41556 is a Chinese payload satellite in SSO that was launched on Mon, 30 May 2016 UTC via a CHANG ZHENG 4B launch vehicle from the Taiyaun Space Center, China (TSC). Payload-class satellites include a variety of spacecraft equipped with specific instruments for various scientific and technological missions. These include communications satellites like Starlink; space stations such as the ISS; scientific satellites like the Hubble; Earth observation satellites from companies like Planet Labs, Umbra, and HawkEye 360; GPS; miniature CubeSats for education and research; and military/defense satellites.

Loading next visibility...
Identifier
41556, 2016-033A
Orbit
SSO
Country
Flag of CNCN / PRC
Related business
Manufacturer
CAST
Mission
Operational Civil Imaging
Bus & Motor
ZY, AOCS 20N
Mass
2,650 kg wet, ~2,600 kg dry
Launch date (UTC)
2016-05-30 (9 years ago)
Launch vehicle
CHANG ZHENG 4B
Launch site
Taiyaun Space Center, China (TSC)
Object type
Payload
Rocket body
Debris
Shape & HBR
Box + 2 Pan, 5.0 m
Radar Cross Section
10.304 m², Large (>1 m²)

Expand to show TLE details & history
Last TLE update: 6 hours ago

TLE from 6 hours ago
0 ZY 3 2
1 41556U 16033A   25261.01555343  .00006898  00000-0  31197-3 0  9991
2 41556  97.4130 336.5673 0010704 186.2973 173.8130 15.21187861516609
Epoch: 2025-09-18T00:22Z
TLE epoch observation values (Epoch: 2025-09-18T00:22:23.816Z)
Latitude
-0.00001°
Longitude
-26.21515°
Altitude
512.672 km
Speed
7.603 km/s
True Right ascension
22h 26m 16s
True Declination
0° 00' 00"
Sunlit
Object was in full shadow at epoch
Visualization orbit readout
Latitude
Unknown
Longitude
Unknown
Altitude
Unknown
Speed
Unknown
Apparent Right ascension
Unknown
Apparent Declination
Unknown
Sunlit
N/A
Visualization observer readout
Local Sidereal Time
23:03:59
Azimuth
Unknown
Elevation
Unknown
Doppler factor
Unknown
Orbital elements
Apogee altitude
506.583 km
Perigee altitude
491.859 km
Semi-major axis
6,877.358 km
Eccentricity
0.00107
Inclination
97.413°
RAAN
336.5673°
Arg. of periapsis
186.2973°
True anomaly
173.8262°
Mean anomaly
173.813°
Eccentric anomaly
173.8196°
Mean motion
3.80549 °/min
Orbital period
94.6 mins
BSTAR
0.00031197
Loading maneuver chart data...
Computing Atmospheric mass density...
Loading historical data...
Loading historical data...
Loading historical data...
Loading historical data...
Loading historical data...
Loading historical data...
Loading historical data...

Documentation

Showing up to 5 results
|